Regional Weather Roundup
Issued by NWS

Home | Current Version | Previous Version | Graphics & Text | Print | Product List | Glossary On
Versions: 1 2 3 4 5 6 7 8 9 10 11 12 13 14 15 16 17 18 19 20 21 22 23 24 25 26 27 28 29 30 31 32 33 34 35 36 37 38 39 40 41 42 43 44 45 46 47 48 49 50
464
ASUS43 KOAX 290710
RWRNE

WEATHER ROUNDUP FOR NEBRASKA
NATIONAL WEATHER SERVICE OMAHA NE
200 AM CDT FRI JUL 29 2016

NOTES: SATELLITE DATA IS BEING USED TO AUGMENT CLOUD COVER ABOVE
       12000 FEET.
       "FAIR" INDICATES FEW OR NO CLOUDS BELOW 12,000 FEET WITH NO
       SIGNIFICANT WEATHER AND/OR OBSTRUCTIONS TO VISIBILITY.

  * THESE STATIONS DO NOT REPORT WEATHER SUCH AS RAIN...SNOW OR FOG.

NEZ001>004-019>022-054>056-290800-
NEBRASKA PANHANDLE

CITY           SKY/WX    TMP DP  RH WIND       PRES   REMARKS
SCOTTSBLUFF    CLEAR     62  59  90 NE5       30.18R
ALLIANCE       CLEAR     58  56  93 N3        30.18S
CHADRON        CLEAR     60  57  89 CALM      30.16F
KIMBALL        CLOUDY    62  60  93 S7        30.23S
SIDNEY         MOCLDY    63  59  87 SW7       30.22F
$$

NEZ057>060-069>072-079>082-290800-
SOUTHWEST NEBRASKA

CITY           SKY/WX    TMP DP  RH WIND       PRES   REMARKS
NORTH PLATTE   CLEAR     59  57  93 CALM      30.14R
IMPERIAL       PTCLDY    65  62  90 CALM      30.16F
LEXINGTON      PTCLDY    64  61  91 NE5       30.12R
MCCOOK         CLEAR     61  58  90 N3        30.12R
OGALLALA       CLEAR     61  59  92 W5        30.16S
$$

NEZ005>010-023>029-035>040-094-290800-
NORTH CENTRAL NEBRASKA

CITY           SKY/WX    TMP DP  RH WIND       PRES   REMARKS
VALENTINE      CLOUDY    59  58  96 W6        30.14R
AINSWORTH      MOCLDY    60  60 100 W3        30.12S FOG
BROKEN BOW     PTCLDY    60  60 100 N5        30.11F
O`NEILL        LGT RAIN  66  65  94 N5        30.10S
ORD            CLOUDY    67  65  93 CALM      30.09R
THEDFORD       CLEAR     59  58  97 CALM      30.15R
$$

NEZ041-046>049-061>064-073>077-083>087-290800-
SOUTH CENTRAL NEBRASKA

CITY           SKY/WX    TMP DP  RH WIND       PRES   REMARKS
GRAND ISLAND   CLOUDY    69  65  86 N3        30.08F
AURORA         PTCLDY    65  65  97 N7        30.06S
HASTINGS       PTCLDY    65  64  97 CALM      30.07F
HEBRON         CLEAR     65  63  90 CALM      30.04F
HOLDREGE       MOCLDY    64  63  95 N3        30.10R
KEARNEY *      CLOUDY    64   9  11 N5        30.10F
YORK           CLOUDY    66  64  94 N3        30.06S
$$

NEZ011>018-030>034-042>045-290800-
NORTHEAST NEBRASKA

CITY           SKY/WX    TMP DP  RH WIND       PRES   REMARKS
NORFOLK        CLOUDY    67  62  84 CALM      30.06F
ALBION         CLOUDY    68  62  83 NE5       30.08S
BLAIR          CLOUDY    68  64  86 CALM      30.03F
FREMONT        CLOUDY    69  64  83 CALM      30.04F
TEKAMAH        CLOUDY    67  63  87 N6        30.03F
WAYNE          MOCLDY    64  62  96 CALM      30.07S
$$

NEZ050>053-065>068-078-088>093-290800-
SOUTHEAST NEBRASKA

CITY           SKY/WX    TMP DP  RH WIND       PRES   REMARKS
LINCOLN        PTCLDY    70  64  81 N5        30.03F
OMAHA EPPLEY   CLOUDY    70  65  84 N6        30.02S
BEATRICE       CLEAR     67  63  86 CALM      30.03S
FALLS CITY     CLEAR     70  67  90 CALM      30.00S
NEBRASKA CITY  CLOUDY    68  66  92 CALM      30.02S
PLATTSMOUTH    LGT RAIN  69  64  84 CALM      30.02S
$$

NEZ044-045-051>053-067-290800-
OMAHA AREA

CITY           SKY/WX    TMP DP  RH WIND       PRES   REMARKS
OMAHA EPPLEY   CLOUDY    70  65  84 N6        30.02S
BLAIR          CLOUDY    68  64  86 CALM      30.03F
FREMONT        CLOUDY    69  64  83 CALM      30.04F
MILLARD        CLOUDY    73  64  71 CALM      30.02F
PLATTSMOUTH    LGT RAIN  69  64  84 CALM      30.02S
WAHOO          CLOUDY    69  66  90 N5        30.04S
$$




USA.gov is the U.S. government's official web portal to all federal, state and local government web resources and services.